Regional Weather Roundup
Issued by NWS

Home | Current Version | Previous Version | Text Only | Print | Product List | Glossary On
Versions: 1 2 3 4 5 6 7 8 9 10 11 12 13 14 15 16 17 18 19 20 21 22 23 24 25 26 27 28 29 30 31 32 33 34 35 36 37 38 39 40 41 42 43 44 45 46 47 48 49 50
075
ASUS43 KDTX 230210
RWRMI
MICHIGAN HOURLY REGIONAL WEATHER ROUNDUP
NATIONAL WEATHER SERVICE DETROIT/PONTIAC MI
900 PM EST WED FEB 22 2017

NOTE: "FAIR" INDICATES FEW OR NO CLOUDS BELOW 12,000 FEET WITH NO
SIGNIFICANT WEATHER AND/OR OBSTRUCTION TO VISIBILITY.

MIZ047>049-052>055-059>063-066>070-074>076-081>083-230300-
SOUTHEAST LOWER MICHIGAN

CITY           SKY/WX    TMP DP  RH WIND       PRES   REMARKS
ADRIAN         CLOUDY    58  53  84 SW10      29.75S
ALMA           MOCLDY    55  51  86 S14G20    29.62F
ANN ARBOR      CLOUDY    57  53  86 S8        29.72F
BAD AXE        CLEAR     53  50  88 S12       29.65S
CARO           CLEAR     56  51  85 S12       29.64F
DETROIT CITY   CLOUDY    57  54  89 S10       29.73F
DETROIT        CLOUDY    59  54  83 S12       29.74F
FLINT          CLEAR     57  50  77 S9        29.67F
GROSSE ILE     FOG       44  43  98 S8        29.74S VSB 3/4
HILLSDALE      CLOUDY    55  52  88 S8        29.71F
HOWELL         CLEAR     56  49  78 S10       29.68F

CITY           SKY/WX    TMP DP  RH WIND       PRES   REMARKS
JACKSON        CLEAR     57  51  80 S10       29.69F
LAMBERTVILLE   CLOUDY    61  55  80 S6        29.75S
LANSING        PTCLDY    57  51  80 S15       29.66F
LAPEER         FAIR      56  51  85 S9G16     29.68F
MASON          CLEAR     56  52  87 S7G16     29.68F
MONROE         MOCLDY    57  54  92 S7        29.74S
MT. CLEMENS    PTCLDY    54  54 100 S9        29.71F FOG
PONTIAC        MOCLDY    57  52  83 S10       29.69F
PORT HOPE        N/A     56  50  80 S9G18     29.61F
PORT HURON     CLEAR     52  50  93 S9        29.72S FOG
TRI CITIES     PTCLDY    55  52  89 S14       29.63F
MIDLAND        FAIR      56  49  77 S8        29.60F
TROY           MOCLDY    58  53  81 S9        29.74S
SAGINAW HB     CLEAR     55  50  82 S20G25    29.63F
$$
MIZ043>046-050>051-056>058-064>065-071>073-077>080-230300-
SOUTHWEST LOWER MICHIGAN

CITY           SKY/WX    TMP DP  RH WIND       PRES   REMARKS
BATTLE CREEK   CLEAR     56  52  86 S13       29.68F
BENTON HARBOR  CLEAR     59  53  80 S13       29.63F
BIG RAPIDS     CLOUDY    57  50  78 SW5       29.58R
COLDWATER      CLEAR     56  52  88 S9        29.70F
FREMONT        FAIR      57  53  86 S10G17    29.57S
HOLLAND        CLEAR     58  52  80 S16       29.61F
GRAND RAPIDS   PTCLDY    57  50  77 S16G23    29.62F
IONIA          FAIR      56  50  81 S17       29.62F
KALAMAZOO      CLEAR     56  50  80 S10       29.67F
LUDINGTON      CLOUDY    55  52  88 SW18G24   29.57F
MARSHALL       CLEAR     56  52  85 S13G18    29.68F
MOUNT PLEASANT MOCLDY    56  52  84 S12       29.59F
MUSKEGON       MOCLDY    61  54  77 S22G28    29.58S
SOUTH HAVEN    CLEAR     57  54  88 S12       29.63S
$$
MIZ016>042-230300-
NORTHERN LOWER MICHIGAN

CITY           SKY/WX    TMP DP  RH WIND       PRES   REMARKS
ALPENA         MOCLDY    49  48  97 S3        29.60F
BEAVER ISLAND  FOG       40  40 100 SE7       29.56F VSB 1
BELLAIRE       CLOUDY    47  43  87 NW5       29.61S
CADILLAC       CLOUDY    51  49  94 SW6       29.59S
CHARLEVOIX     LGT RAIN  43  43 100 E6        29.61F VSB 1/4
FRANKFORT      CLOUDY    47  46  95 CALM      29.57S FOG
GAYLORD        MOCLDY    48  43  82 W6        29.59F HAZE
GRAYLING       LGT RAIN  47  46  97 CALM      29.60S
HARBOR SPRINGS LGT RAIN  41  41  99 E3        29.61F
HOUGHTON LAKE  CLOUDY    49  47  93 CALM      29.60S
MANISTEE       PTCLDY    57  52  83 S9        29.56F
OSCODA         PTCLDY    53  49  89 SW13G21   29.59S
PELLSTON       LGT RAIN  40  38  93 SE3       29.60S VSB 1/4
ROGERS CITY    CLOUDY    40  37  91 CALM      29.61F
TRAVERSE CITY  CLOUDY    47  43  86 N5        29.58F
$$
MIZ007>008-015-230300-
EASTERN UPPER MICHIGAN

CITY           SKY/WX    TMP DP  RH WIND       PRES   REMARKS
KINROSS        LGT RAIN  39  39 100 SE5       29.58F VSB 1/4
MACKINAC ISLAN MIX PCPN  41  41 100 CALM      29.60S VSB 1/2
NEWBERRY       CLOUDY    39  37  93 CALM      29.56R FOG
S. S. MARIE    LGT RAIN  40  38  93 E6        29.57F FOG
MUNISING         N/A     34  34 100 CALM      29.58R
$$
MIZ004>006-011>014-085-230300-
CENTRAL UPPER MICHIGAN

CITY           SKY/WX    TMP DP  RH WIND       PRES   REMARKS
MANISTIQUE     LGT RAIN  38  38  97 CALM      29.57R
ESCANABA       LGT RAIN  39  38  96 CALM      29.62R
MENOMINEE      MOCLDY    39  38  96 N7        29.56F FOG     WCI  34
SAWYER-GWINN   FOG       34  34 100 N7        29.59R VSB 1/2 WCI  28
$$
MIZ001>003-009>011-084-230300-
WESTERN UPPER MICHIGAN

CITY           SKY/WX    TMP DP  RH WIND       PRES   REMARKS
IRON MOUNTAIN  RAIN      42  39  89 CALM      29.57R FOG
HOUGHTON       CLOUDY    36  29  75 N7        29.60R WCI  30
COPPER HARBOR    N/A     36  32  85 N8        29.62R WCI  30
IRONWOOD       LGT RAIN  36  34  92 NE3       29.64R
$$

ABBREVIATIONS USED IN REMARKS
   TC - TEMPERATURE IN CELSIUS
  WCI - WIND CHILL INDEX
   HX - HEAT INDEX
  VSB - VISIBILITY





USA.gov is the U.S. government's official web portal to all federal, state and local government web resources and services.